Flag for U.S.A. Weather past 2 weeks in Unalaska, Alaska, U.S.A.

Now
43 °F

Light rain. Mostly cloudy.


Feels Like: 37 °F
Forecast: 41 / 44 °F
Wind: 12 mph from Southeast

Location: Dutch Harbor

Current Time: May 22, 2015 at 8:26:25 AM

Latest Report: May 22, 2015 at 7:56 AM


Visibility: 10 mi

Pressure: 29.76 "Hg

Humidity: 74%

Dew point: 35 °F

Location of UnalaskaLocation

Historic Weather in Unalaska — Graph

°F

Unalaska temperature yesterday

Maximum temperature yesterday: 47 °F (at 6:56 PM)
Minimum temperature yesterday: 42 °F (at 6:56 AM)
Average temperature yesterday: 44 °F

Past Weeks' High & Low Weather Summary

 TemperatureHumidityPressure
High51 °F (May 12, 8:56 PM)93% (May 10, 5:58 AM)30.10 "Hg (May 10, 5:58 AM)
Low39 °F (May 15, 7:58 AM)58% (May 18, 3:56 PM)29.33 "Hg (May 14, 6:56 AM)
Average44 °F77%29.70 "Hg
* Reported May 7 6:56 AM — May 22 6:56 AM, Unalaska, Weather by CustomWeather, © 2015

Note: Actual official high and low records may vary slightly from our data, if they occured in-between our weather recording intervals... More about our weather records

Advertising

Unalaska weather history for previous 24 hours

 ConditionsComfort  
Time TempWeatherWind HumidityBarometerVisibility
6:56 AM
Fri, May 22
43 °FOvercast.6 mph74%29.79 "Hg10 mi
5:56 AM43 °FOvercast.12 mph74%29.81 "Hg10 mi
4:56 AM43 °FMostly cloudy.15 mph79%29.85 "Hg10 mi
3:56 AM43 °FLight rain. Mostly cloudy.6 mph79%29.89 "Hg10 mi
2:56 AM43 °FMostly cloudy.5 mph76%29.93 "Hg10 mi
1:56 AM42 °FPassing clouds.7 mph79%29.96 "Hg10 mi
12:56 AM43 °FOvercast.6 mph76%29.99 "Hg10 mi
11:56 PM
Thu, May 21
42 °FPassing clouds.3 mph79%30.00 "Hg10 mi
10:56 PM42 °FSunny.No wind79%30.02 "Hg10 mi
9:56 PM44 °FMore clouds than sun.No wind73%30.03 "Hg10 mi
8:56 PM44 °FScattered clouds.5 mph73%30.03 "Hg10 mi
6:56 PM47 °FScattered clouds.6 mph66%30.04 "Hg10 mi
5:56 PM46 °FScattered clouds.5 mph68%30.05 "Hg10 mi
4:56 PM46 °FBroken clouds.6 mph68%30.06 "Hg10 mi
3:56 PM44 °FBroken clouds.7 mph73%30.08 "Hg10 mi
1:56 PM44 °FBroken clouds.10 mph79%30.08 "Hg10 mi
12:56 PM44 °FPartly sunny.6 mph76%30.08 "Hg10 mi
11:56 AM44 °FPartly sunny.13 mph79%30.07 "Hg10 mi
10:56 AM44 °FPartly sunny.3 mph71%30.08 "Hg10 mi
9:56 AM44 °FPartly sunny.6 mph73%30.07 "Hg10 mi
8:56 AM42 °FPartly sunny.9 mph82%30.05 "Hg10 mi
Weather by CustomWeather, © 2015

See weather overviewHow to use our weather pages